Regional Weather Roundup
Issued by NWS

Home | Current Version | Previous Version | Text Only | Print | Product List | Glossary Off
Versions: 1 2 3 4 5 6 7 8 9 10 11 12 13 14 15 16 17 18 19 20 21 22 23 24 25 26 27 28 29 30 31 32 33 34 35 36 37 38 39 40 41 42 43 44 45 46 47 48 49 50

070
ASUS45 KABQ 120601
RWRNM
NEW MEXICO REGIONAL WEATHER ROUNDUP
NATIONAL WEATHER SERVICE ALBUQUERQUE NM
1100 PM MST THU FEB 11 2016

NOTE: "FAIR" MEANS FEW OR NO CLOUDS BELOW 12,000 FEET AGL WITH NO
       SIGNIFICANT WEATHER OR OBSTRUCTIONS TO VISION.

      THIS PRODUCT IS RELEASED AS TWO VERSIONS.  ONE VERSION NEAR
      THE TOP OF THE HOUR CONTAINING PRELIMINARY DATA FROM ALBUQUERQUE
      AND OTHER STATIONS.  A FINAL VERSION WITH ADDITIONAL DATA IS
      ISSUED ABOUT 10 MINUTES AFTER THE HOUR.

NMZ501-503-504-510>518-120700-
NORTHWEST PLATEAU/NORTHCENTRAL MOUNTAINS

CITY           SKY/WX    TMP DP  RH WIND       PRES   REMARKS
FARMINGTON     CLOUDY    28  23  81 NE3       30.37R
6HR MIN TEMP:  28; 6HR MAX TEMP:  53;

SANTA FE       CLOUDY    37  19  48 N12       30.33S WCI  29
6HR MIN TEMP:  36; 6HR MAX TEMP:  58;

TAOS           CLOUDY    28  19  69 N7        30.39R WCI  21

$$
NMZ402-403-502-505>509-120700-
WESTCENTRAL MOUNTAINS/SOUTHWEST MOUNTAINS

CITY           SKY/WX    TMP DP  RH WIND       PRES   REMARKS
GALLUP         CLEAR     23  17  78 E3        30.41R
6HR MIN TEMP:  21; 6HR MAX TEMP:  62;

SILVER CITY      N/A     39  14  35 N15       30.32S WCI  31

$$
NMZ407-409-411-412-120700-
SOUTHERN DESERTS

CITY           SKY/WX    TMP DP  RH WIND       PRES   REMARKS
DEMING         CLEAR     43  11  27 NW7       30.26F
6HR MIN TEMP:  43; 6HR MAX TEMP:  73;

HOLLOMAN AFB   CLEAR     43   9  24 SE5       30.24S
ALAMOGORDO     CLOUDY    45   9  23 S7        30.26R
T OR C         CLEAR     46  11  24 NW6       30.29R
6HR MIN TEMP:  45; 6HR MAX TEMP:  69;


$$
NMZ519>523-120700-
CENTRAL VALLEYS/CENTRAL HIGHLANDS

CITY           SKY/WX    TMP DP  RH WIND       PRES   REMARKS
ALBUQUERQUE    CLOUDY    49  18  29 N8        30.34R
6HR MIN TEMP:  48; 6HR MAX TEMP:  65;

DOUBLE EAGLE   CLOUDY    41  16  36 NW8       30.35S
MORIARTY ARPT  FAIR      30  16  56 CALM      30.35S
6HR MIN TEMP:  27; 6HR MAX TEMP:  60;

CLINES CORNERS CLOUDY    37  20  50 W14       30.31F WCI  28
6HR MIN TEMP:  36; 6HR MAX TEMP:  54;

BELEN          FAIR      37  11  34 CALM      30.34R
6HR MIN TEMP:  35; 6HR MAX TEMP:  65;

SOCORRO        NOT AVBL

$$
NMZ524>526-539-540-120700-
SOUTHCENTRAL MOUNTAINS

CITY           SKY/WX    TMP DP  RH WIND       PRES   REMARKS
RUIDOSO          N/A     46   5  18 NW7       30.35S

$$
NMZ527>531-120700-
NORTHEAST HIGHLANDS/NORTHEAST PLAINS

CITY           SKY/WX    TMP DP  RH WIND       PRES   REMARKS
LAS VEGAS      CLOUDY    42  11  28 N10       30.31R
6HR MIN TEMP:  41; 6HR MAX TEMP:  60;

RATON          CLOUDY    39  16  39 N13       30.30R WCI  31
6HR MIN TEMP:  32; 6HR MAX TEMP:  63;

CLAYTON        CLOUDY    44  22  41 N14       30.27R
6HR MIN TEMP:  44; 6HR MAX TEMP:  63;


$$
NMZ532>537-120700-
EASTCENTRAL PLAINS

CITY           SKY/WX    TMP DP  RH WIND       PRES   REMARKS
TUCUMCARI      CLOUDY    38  16  40 CALM      30.17S
6HR MIN TEMP:  36; 6HR MAX TEMP:  68;

CANNON AFB     CLOUDY    45  17  32 W3        30.20F
6HR MIN TEMP:  42; 6HR MAX TEMP:  65;

CLOVIS AIRPORT CLOUDY    43  19  39 SW10      30.22S

$$
NMZ028-029-538-120700-
SOUTHEAST PLAINS

CITY           SKY/WX    TMP DP  RH WIND       PRES   REMARKS
ROSWELL        CLOUDY    43  19  38 W8        30.21R
6HR MIN TEMP:  39; 6HR MAX TEMP:  70;

ARTESIA        CLOUDY    48  16  27 W13       30.21R
CARLSBAD       CLOUDY    44  23  43 VRB5      30.19R
6HR MIN TEMP:  41; 6HR MAX TEMP:  70;

HOBBS          CLOUDY    37  23  56 CALM      30.22S


$$




USA.gov is the U.S. government's official web portal to all federal, state and local government web resources and services.